Home > Weather > Qikiqtarjuaq > Past weeks

Flag for Canada Weather for the Past 2 Weeks in Qikiqtarjuaq, Nunavut, Canada

Now
12 °F

Passing clouds.


Feels Like: 0 °F
Forecast: 13 / 34 °F
Wind: 9 mph from Southwest

Location: Broughton Island Airport

Current Time: May 2, 2016 at 12:27:17 AM

Latest Report: May 1, 2016 at 11:00 PM


Visibility: 9 mi

Pressure: 29.92 "Hg

Humidity: 85%

Dew Point: 9 °F

Location of QikiqtarjuaqLocation

Historic Weather in Qikiqtarjuaq — Graph

°F

Qikiqtarjuaq Temperature Yesterday

Maximum temperature yesterday: 16 °F (at 1:00 PM)
Minimum temperature yesterday: 3 °F (at 1:00 AM)
Average temperature yesterday: 10 °F

High & Low Weather Summary for the Past Weeks

 TemperatureHumidityPressure
High34 °F (Apr 21, 4:00 PM)100% (Apr 27, 11:00 PM)30.46 "Hg (Apr 27, 11:00 PM)
Low-13 °F (Apr 19, 12:00 AM)38% (Apr 22, 9:00 AM)29.24 "Hg (Apr 21, 2:00 PM)
Average14 °F80%30.10 "Hg
* Reported Apr 16 10:00 PM — May 1 10:00 PM, Qikiqtarjuaq, Weather by CustomWeather, © 2016

Note: Actual official high and low records may vary slightly from our data, if they occured in-between our weather recording intervals... More about our weather records

Advertising

Qikiqtarjuaq Weather History for the Previous 24 Hours

Scroll right to see more
 ConditionsComfort  
Time TempWeatherWind HumidityBarometerVisibility
10:00 PM
Sun, May 1
10 °FMostly cloudy.5 mph85%29.95 "Hg9 mi
9:00 PM9 °FOvercast.3 mph85%29.97 "Hg9 mi
8:00 PM12 °FSunny.6 mph85%29.98 "Hg9 mi
7:00 PM14 °FSunny.8 mph85%30.00 "Hg9 mi
6:00 PM16 °FSunny.8 mph79%30.01 "Hg9 mi
5:00 PM16 °FSunny.10 mph79%30.02 "Hg9 mi
4:00 PM16 °FSunny.9 mph79%30.03 "Hg9 mi
3:00 PM16 °FSunny.9 mph79%30.04 "Hg9 mi
2:00 PM16 °FSunny.7 mph79%30.05 "Hg9 mi
1:00 PM16 °FSnow flurries. Passing clouds.10 mph79%30.06 "Hg15 mi
12:00 PM14 °FSnow flurries. Passing clouds.9 mph79%30.06 "Hg15 mi
11:00 AM14 °FPassing clouds.No wind79%30.07 "Hg15 mi
10:00 AM12 °FSnow flurries. Passing clouds.6 mph85%30.09 "Hg15 mi
9:00 AM9 °FSnow flurries. Passing clouds.3 mph85%30.09 "Hg15 mi
8:00 AM9 °FSnow flurries. Passing clouds.2 mph85%30.11 "Hg15 mi
7:00 AM7 °FLight snow. Scattered clouds.No wind85%30.12 "Hg15 mi
6:00 AM7 °FLight snow. Partly sunny.No wind92%30.11 "Hg9 mi
5:55 AM5 °FPassing clouds.No wind92%30.11 "Hg9 mi
5:00 AM7 °FLight snow. Overcast.No wind92%30.11 "Hg8 mi
4:00 AM7 °FLight snow. Overcast.2 mph92%30.11 "Hg5 mi
3:00 AM5 °FLight snow. Overcast.3 mph85%30.11 "Hg4 mi
2:53 AM5 °FLight snow. Overcast.2 mph85%30.11 "Hg4 mi
2:00 AM5 °FLight snow. Mostly cloudy.2 mph92%30.11 "Hg5 mi
1:58 AM5 °FLight snow. Mostly cloudy.No wind85%30.11 "Hg5 mi
1:00 AM3 °FPassing clouds.6 mph85%30.10 "Hg9 mi
12:00 AM7 °FClear.2 mph92%30.09 "Hg9 mi
Weather by CustomWeather, © 2016

See weather overviewHow to use our weather pages